Regional Weather Roundup
Issued by NWS

Home | Current Version | Previous Version | Text Only | Print | Product List | Glossary Off
Versions: 1 2 3 4 5 6 7 8 9 10 11 12 13 14 15 16 17 18 19 20 21 22 23 24 25 26 27 28 29 30 31 32 33 34 35 36 37 38 39 40 41 42 43 44 45 46 47 48 49 50

000
ASUS43 KFSD 151002
RWRSD

WEATHER ROUNDUP FOR SOUTH DAKOTA
NATIONAL WEATHER SERVICE SIOUX FALLS SD
500 AM CDT TUE APR 15 2014

NOTE: "FAIR" INDICATES FEW OR NO CLOUDS BELOW 12,000 FEET WITH NO
SIGNIFICANT WEATHER AND/OR OBSTRUCTIONS TO VISIBILITY.


SDZ001>005-009-010-012>017-151100-
NORTHWEST AND NORTH CENTRAL SOUTH DAKOTA

CITY           SKY/WX    TMP DP  RH WIND       PRES   REMARKS
BUFFALO          N/A     22  12  65 SE13      29.81F WCI  10
FAITH            N/A     21  11  65 SE17      29.95F WCI   7
MOBRIDGE       MOCLDY    19  11  70 SE8       30.04F WCI   9
$$

SDZ012>016-024>037-041>051-057-063-072>074-151100-
SOUTHWEST AND SOUTH CENTRAL SOUTH DAKOTA

CITY           SKY/WX    TMP DP  RH WIND       PRES   REMARKS
RAPID CTY ARPT CLEAR     19  10  68 SE5       29.89F WCI  12
PIERRE         CLEAR     15  11  83 E8        30.06F WCI   4
CUSTER         CLEAR     26  12  55 W7        29.87F WCI  18
ELLSWORTH AFB  CLEAR     24  11  58 S9        29.88F WCI  14
PHILIP         CLEAR     16   9  74 E8        29.99F WCI   5
PINE RIDGE     CLEAR     28  19  69 W5        29.94F WCI  23
WINNER         FAIR      17   8  67 SE8       30.08F WCI   7
$$

SDZ004>011-016>023-039-040-151100-
NORTHEAST SOUTH DAKOTA

CITY           SKY/WX    TMP DP  RH WIND       PRES   REMARKS
ABERDEEN       CLEAR      9   6  88 CALM      30.16R
WATERTOWN      CLEAR     15  11  83 SE3       30.12F
SISSETON         N/A     16  11  80 CALM      30.15F
$$

SDZ017-020-022-023-036>040-048>070-151100-
SOUTHEAST SOUTH DAKOTA

CITY           SKY/WX    TMP DP  RH WIND       PRES   REMARKS
SIOUX FALLS    CLEAR     15  12  88 CALM      30.18R
HURON          CLEAR     18  13  80 S7        30.15F WCI   9
CHAMBERLAIN      N/A     19  16  88 SE8       30.12F WCI   9
MITCHELL       CLEAR     19  16  88 SE7       30.17F WCI  10
YANKTON        CLEAR     16  12  86 N5        30.19F WCI   9
$$

ABBREVIATIONS USED IN REMARKS
   TC - TEMPERATURE IN CELSIUS
  WCI - WIND CHILL INDEX
   HX - HEAT INDEX
  VSB - VISIBILITY




USA.gov is the U.S. government's official web portal to all federal, state and local government web resources and services.